[[{"header":{"parameterUnit":"m.s-1","parameterCategory":1,"la1":30.2991,"la2":30.254,"lo1":-89.0895,"lo2":-89.0444,"dy":0.0017,"dx":0.0017,"nx":28,"ny":28,"refTime":"2026-02-27T03:00:00:Z","depth":0,"parameterNumber":2,"parameterNumberName":"U-component_of_WINDS"},"data":[0,0,0,0,0,0,0,0,0,0,0,0,0,0,0,0,0,0,0,0,0,0,0,0,0,0,0,0,0,0,0,0,0,0,0,0,0,0,0,0,0,0,0,0,0,0,0,0,0,0,0,0,0,0,0,0,0,0,0.2773,0.2775,0,0.2922,0.2923,0.2925,0.296,0.2959,0.2958,0.2957,0.3113,0.3118,0.3123,0,0,0,0,0,0,0,0,0,0,0,0,0,0.2524,0.2529,0.2773,0.2775,0.2777,0.2921,0.2924,0.2926,0.296,0.2959,0.2958,0.2956,0.3111,0.3117,0.3123,0,0,0,0,0,0,0,0,0,0,0,0,0,0.2649,0.253,0.2773,0.2811,0.2816,0.2921,0.2924,0.2926,0.296,0.2959,0.2957,0.2956,0.3109,0.3117,0.3124,0.3202,0,0,0.3148,0.3151,0,0,0,0,0,0,0,0,0.2642,0.2658,0.2804,0.2809,0.2815,0.2921,0.2893,0.3019,0.2961,0.2906,0.2957,0.2955,0.305,0.3063,0.3094,0.3209,0.3216,0.3148,0.3153,0.3156,0.3158,0,0,0,0,0,0,0,0.2633,0.2652,0.2832,0.2806,0.2813,0.2823,0.2839,0.2917,0.2985,0.291,0.2913,0.293,0.3053,0.3087,0.3098,0.3218,0.3148,0.3155,0.316,0.3162,0.3408,0.341,0,0,0,0,0,0,0.2617,0.2644,0.2827,0.2837,0.2722,0.2829,0.2847,0.2888,0.2984,0.2997,0.2931,0.2931,0.3074,0.3089,0.3104,0.3204,0.3156,0.3163,0.3168,0.3407,0.3409,0.3411,0,0,0,0,0,0,0.2611,0.2633,0.2821,0.2741,0.2766,0.2835,0.2881,0.2892,0.2926,0.3,0.3013,0.2953,0.3074,0.3093,0.3178,0.321,0.3167,0.3174,0.3404,0.3407,0.341,0.3403,0,0,0,0,0,0,0.2604,0.2631,0.266,0.2742,0.277,0.2891,0.2883,0.2896,0.2938,0.294,0.3024,0.3036,0.3074,0.3166,0.3185,0.3219,0.318,0.3402,0.3406,0.3409,0.34,0.3405,0.3409,0,0,0,0,0,0.2595,0.2652,0.2661,0.2683,0.2808,0.2893,0.291,0.2951,0.294,0.2972,0.302,0.3033,0.3202,0.3175,0.3197,0.3233,0.34,0.3404,0.3409,0.3399,0.3404,0.3409,0,0,0,0,0,0,0.2573,0.2663,0.2674,0.2759,0.2818,0.2899,0.2939,0.2955,0.3019,0.3018,0.3068,0.3086,0.3169,0.3209,0.3177,0.3315,0.3301,0.331,0.3286,0.3292,0.3296,0.3285,0.3186,0,0,0,0,0,0.2578,0.2638,0.2714,0.2782,0.2811,0.287,0.2908,0.2935,0.2999,0.3024,0.3079,0.3141,0.3209,0.3252,0.3318,0.3406,0.3426,0.3442,0.3446,0.3449,0.3457,0.351,0.3518,0.3425,0.3425,0.3425,0,0,0.2588,0.2645,0.2681,0.2779,0.2828,0.2891,0.289,0.2957,0.3006,0.3035,0.3119,0.3161,0.3234,0.3321,0.3363,0.3358,0.3487,0.3455,0.3457,0.3463,0.3515,0.3524,0.3532,0.3428,0.3428,0.3427,0,0,0.2641,0.2689,0.2752,0.2801,0.2875,0.2914,0.2929,0.3008,0.3037,0.3121,0.3146,0.3204,0.3319,0.3371,0.3412,0.3486,0.3503,0.3506,0.3529,0.358,0.3587,0.3594,0.3623,0.3633,0.3514,0.3514,0.3514,0,0.2646,0.2741,0.2782,0.2849,0.2892,0.2921,0.2986,0.3032,0.3124,0.3155,0.3147,0.3293,0.3344,0.3446,0.3464,0.3495,0.3516,0.3498,0.3582,0.359,0.3597,0.3625,0.3636,0.3514,0.3514,0.3514,0.3514,0,0.2745,0.281,0.2853,0.294,0.2989,0.3054,0.3107,0.3151,0.3174,0.3214,0.3302,0.3364,0.3445,0.347,0.3493,0.3576,0.3571,0.3572,0.356,0.3605,0.3633,0.3644,0.3514,0.3514,0.3514,0.3514,0,0,0.2788,0.2898,0.2913,0.2955,0.3039,0.3092,0.3159,0.3237,0.3275,0.3338,0.3398,0.3495,0.3497,0.3544,0.3573,0.3617,0.3676,0.3614,0.3617,0.3626,0.3774,0.3774,0.3785,0.3686,0.3688,0.369,0.3769,0,0.2853,0.2973,0.3013,0.3115,0.3178,0.3207,0.3266,0.3325,0.3365,0.3426,0.347,0.3539,0.3536,0.3565,0.3609,0.3659,0.3706,0.3653,0.3745,0.3747,0.3728,0.38,0.3799,0.3871,0.3779,0.3781,0.3782,0,0.2944,0.3009,0.3116,0.3195,0.3223,0.3275,0.3351,0.3408,0.3477,0.3503,0.3556,0.3582,0.3656,0.3638,0.3742,0.3705,0.3745,0.3775,0.3779,0.3791,0.3769,0.3816,0.3894,0.3906,0.3799,0.3798,0.3797,0,0.2968,0.3082,0.3161,0.3195,0.3288,0.3325,0.3366,0.3433,0.3478,0.3545,0.3575,0.3649,0.3691,0.3749,0.3795,0.3777,0.3897,0.3881,0.3923,0.3922,0.3948,0.3946,0.4036,0.3969,0.3969,0.3969,0.3969,0,0.3038,0.3103,0.3174,0.3223,0.3298,0.3344,0.3417,0.346,0.3519,0.3579,0.3608,0.3664,0.372,0.3784,0.3821,0.3904,0.3921,0.3947,0.3956,0.3945,0.3943,0.3974,0.3971,0.3972,0.3971,0.3971,0.397,0,0.3078,0.3127,0.3217,0.3297,0.3319,0.3371,0.3442,0.3492,0.3533,0.3608,0.3628,0.3694,0.377,0.3822,0.392,0.3945,0.4036,0.4043,0.4012,0.4017,0.4057,0.4053,0.4172,0.4191,0.4109,0.4109,0.411,0,0.312,0.3171,0.3258,0.33,0.334,0.3407,0.3453,0.3501,0.3548,0.3631,0.3672,0.375,0.3816,0.3938,0.3995,0.4071,0.4082,0.4118,0.4093,0.4082,0.4086,0.4083,0.409,0.4123,0.4123,0.4124,0.4124,0,0.3191,0.3213,0.3278,0.3353,0.3407,0.3468,0.3529,0.3562,0.3621,0.3673,0.3751,0.3802,0.3902,0.3981,0.4063,0.4107,0.4127,0.4131,0.4145,0.4136,0.4117,0.4131,0.4025,0.4129,0.4128,0.4128,0.4128,0.4127,0.3235,0.3283,0.3352,0.3424,0.3475,0.3532,0.3584,0.3632,0.3698,0.3783,0.3807,0.389,0.396,0.4071,0.4117,0.4183,0.418,0.42,0.4205,0.421,0.4212,0.4105,0.4198,0.4198,0.4198,0.4198,0.4198,0,0.331,0.3356,0.3421,0.3507,0.3564,0.3576,0.3645,0.3693,0.3765,0.3828,0.3892,0.3984,0.406,0.4124,0.4204,0.4245,0.4256,0.4265,0.4263,0.4274,0.4209,0.419,0.4254,0.4254,0.4254,0.4254,0.4254,0.4254,0.3355,0.3438,0.3468,0.3577,0.3623,0.3704,0.3743,0.3797,0.3847,0.3948,0.4012,0.4052,0.4117,0.4202,0.4273,0.429,0.432,0.4326,0.4346,0.4284,0.4278,0.4272,0.4255,0.4332,0.4332,0.4406,0.4406,0.4407]},{"header":{"parameterUnit":"m.s-1","parameterCategory":1,"la1":30.2991,"la2":30.254,"lo1":-89.0895,"lo2":-89.0444,"dy":0.0017,"dx":0.0017,"nx":28,"ny":28,"refTime":"2026-02-27T03:00:00:Z","depth":0,"parameterNumber":3,"parameterNumberName":"V-component_of_WINDS"},"data":[0,0,0,0,0,0,0,0,0,0,0,0,0,0,0,0,0,0,0,0,0,0,0,0,0,0,0,0,0,0,0,0,0,0,0,0,0,0,0,0,0,0,0,0,0,0,0,0,0,0,0,0,0,0,0,0,0,0,1.8837,1.8838,0,1.8964,1.8965,1.8967,1.8981,1.898,1.8978,1.8977,1.9105,1.9109,1.9114,0,0,0,0,0,0,0,0,0,0,0,0,0,1.8605,1.8609,1.8837,1.8839,1.884,1.8964,1.8965,1.8967,1.8981,1.898,1.8978,1.8977,1.9103,1.9109,1.9114,0,0,0,0,0,0,0,0,0,0,0,0,0,1.8716,1.861,1.8837,1.8862,1.8866,1.8963,1.8965,1.8968,1.8982,1.898,1.8978,1.8976,1.9102,1.9108,1.9115,1.9195,0,0,1.9136,1.9139,0,0,0,0,0,0,0,0,1.871,1.8724,1.8857,1.8861,1.8865,1.8955,1.893,1.9044,1.8982,1.8937,1.8977,1.8975,1.9056,1.9067,1.9095,1.9201,1.9207,1.9137,1.9141,1.9144,1.9146,0,0,0,0,0,0,0,1.8702,1.8719,1.8887,1.8859,1.8864,1.8866,1.888,1.8952,1.9006,1.8941,1.8943,1.8957,1.9058,1.9088,1.9098,1.9209,1.9136,1.9142,1.9147,1.9149,1.9388,1.939,0,0,0,0,0,0,1.869,1.8712,1.8883,1.8891,1.8781,1.8872,1.8887,1.8928,1.9005,1.9015,1.8959,1.8958,1.9077,1.909,1.9102,1.9202,1.9144,1.915,1.9154,1.9385,1.9388,1.9391,0,0,0,0,0,0,1.8685,1.8705,1.8878,1.8802,1.8824,1.8878,1.8923,1.8931,1.8961,1.9019,1.9028,1.898,1.9076,1.9093,1.9172,1.9207,1.9153,1.9159,1.9383,1.9386,1.9389,1.9403,0,0,0,0,0,0,1.8678,1.8703,1.8735,1.8803,1.8828,1.8947,1.8925,1.8935,1.8973,1.8973,1.9041,1.905,1.9076,1.9162,1.9179,1.9215,1.9165,1.938,1.9384,1.9388,1.9399,1.9406,1.9412,0,0,0,0,0,1.867,1.8733,1.8736,1.8757,1.8869,1.8949,1.8963,1.8993,1.8976,1.9008,1.9045,1.9048,1.92,1.917,1.9189,1.9228,1.9378,1.9383,1.9388,1.9397,1.9405,1.9412,0,0,0,0,0,0,1.8667,1.8742,1.8747,1.8834,1.8885,1.8951,1.8993,1.9,1.9056,1.9053,1.9086,1.9101,1.918,1.9212,1.9177,1.931,1.9287,1.9296,1.9287,1.9295,1.9301,1.9293,1.917,0,0,0,0,0,1.8676,1.8735,1.8798,1.8868,1.8894,1.8939,1.8974,1.8992,1.9046,1.9068,1.911,1.9162,1.9221,1.9259,1.9317,1.9403,1.9418,1.9439,1.9445,1.945,1.9458,1.9507,1.9517,1.9407,1.9407,1.9407,0,0,1.8697,1.8745,1.878,1.8869,1.8911,1.8971,1.8957,1.9021,1.9065,1.9077,1.9156,1.9188,1.9248,1.9331,1.937,1.936,1.9492,1.9456,1.946,1.9466,1.9513,1.9523,1.9532,1.941,1.941,1.9409,0,0,1.8765,1.8807,1.8872,1.8914,1.8977,1.9006,1.9021,1.9086,1.9109,1.9188,1.9199,1.9251,1.9353,1.9395,1.943,1.9513,1.9518,1.953,1.9563,1.961,1.9619,1.9627,1.9657,1.9668,1.9538,1.9538,1.9538,0,1.8783,1.8874,1.8903,1.8968,1.9007,1.902,1.9085,1.9124,1.9202,1.9228,1.9216,1.9344,1.9385,1.9479,1.9499,1.9526,1.9544,1.9524,1.9615,1.9623,1.9631,1.9661,1.9672,1.9539,1.9539,1.9539,1.9538,0,1.8893,1.8956,1.9,1.9077,1.912,1.9184,1.9223,1.9263,1.9276,1.9307,1.9387,1.9436,1.9505,1.9527,1.9541,1.9623,1.9615,1.9608,1.9587,1.9642,1.9671,1.9683,1.9541,1.954,1.954,1.9539,0,0,1.8966,1.9057,1.9073,1.9108,1.9178,1.9227,1.9291,1.9359,1.9393,1.9446,1.9501,1.9586,1.958,1.9619,1.9637,1.9678,1.9742,1.9666,1.9668,1.968,1.9837,1.9843,1.9856,1.9745,1.9747,1.9749,1.9832,0,1.9044,1.916,1.9188,1.9287,1.9346,1.9359,1.9414,1.9463,1.9492,1.9546,1.9578,1.9638,1.9625,1.9649,1.969,1.9726,1.9774,1.972,1.9797,1.9799,1.9784,1.9871,1.9878,1.9954,1.9844,1.9845,1.9847,0,1.9151,1.9208,1.9313,1.9376,1.9401,1.9451,1.9516,1.9566,1.9621,1.964,1.9683,1.9697,1.9763,1.9736,1.9828,1.979,1.9823,1.9845,1.9848,1.9859,1.9828,1.9885,1.9979,1.9992,1.9864,1.9863,1.9862,0,1.9196,1.9297,1.9374,1.9403,1.9478,1.9513,1.9545,1.9598,1.9637,1.9692,1.9718,1.9779,1.9813,1.986,1.989,1.9867,1.998,1.9955,1.9997,1.9997,2.0023,2.0021,2.0126,2.004,2.004,2.004,2.0039,0,1.9281,1.9346,1.9395,1.9443,1.9515,1.9545,1.9616,1.9648,1.9695,1.9748,1.9761,1.9811,1.9846,1.99,1.9923,1.9996,2.0011,2.0028,2.0034,2.0028,2.0026,2.0052,2.0048,2.0043,2.0042,2.0041,2.0041,0,1.9345,1.938,1.9465,1.9528,1.9546,1.9596,1.965,1.9696,1.9725,1.9792,1.981,1.9855,1.9919,1.9953,2.0033,2.0048,2.0131,2.0133,2.0113,2.0116,2.0157,2.0154,2.0284,2.0303,2.0202,2.0203,2.0204,0,1.9398,1.9449,1.9517,1.9554,1.9588,1.9647,1.9687,1.9717,1.9758,1.9824,1.9862,1.9927,1.9981,2.0082,2.0122,2.0183,2.0188,2.0229,2.0197,2.019,2.019,2.0188,2.0193,2.0235,2.0236,2.0237,2.0237,0,1.949,1.9505,1.9563,1.9626,1.9673,1.9724,1.9775,1.9804,1.9842,1.9887,1.9953,1.9995,2.0077,2.0142,2.0205,2.0238,2.0245,2.0247,2.026,2.0256,2.0244,2.0253,2.0131,2.0244,2.0244,2.0243,2.0243,2.0242,1.9552,1.9597,1.9653,1.9716,1.9757,1.9804,1.9851,1.9885,1.9941,2.0011,2.0025,2.0095,2.0148,2.0234,2.0268,2.0323,2.0315,2.0334,2.0339,2.0344,2.0346,2.0233,2.0334,2.0334,2.0334,2.0334,2.0334,0,1.9647,1.9683,1.974,1.9811,1.986,1.9862,1.9917,1.9958,2.002,2.0069,2.0122,2.0198,2.026,2.0304,2.0367,2.0403,2.0407,2.0418,2.0417,2.0425,2.035,2.0333,2.0414,2.0414,2.0414,2.0414,2.0414,2.0414,1.9702,1.9779,1.98,1.9897,1.9933,2.0003,2.0034,2.0077,2.0116,2.0201,2.0253,2.0281,2.0328,2.0394,2.0451,2.0462,2.0486,2.0497,2.0509,2.0438,2.043,2.0422,2.0406,2.0502,2.0502,2.058,2.058,2.0581]}]]